owner,sensor,date,latitude,longitude,vertical_datum,sea_water_practical_salinity,qcFlag 
DISL,ioos:station:DISL:BSCA:1,2018-06-01T00:00:00Z,30.3288,-87.8293,2.2,13.0,11111222 
DISL,ioos:station:DISL:BSCA:1,2018-06-01T00:30:00Z,30.3288,-87.8293,2.2,13.0,11111222 
DISL,ioos:station:DISL:BSCA:1,2018-06-01T01:00:00Z,30.3288,-87.8293,2.2,13.0,11111222 
DISL,ioos:station:DISL:BSCA:1,2018-06-01T01:30:00Z,30.3288,-87.8293,2.1,13.0,11111222 
DISL,ioos:station:DISL:BSCA:1,2018-06-01T02:00:00Z,30.3288,-87.8293,2.1,13.0,11111222 
DISL,ioos:station:DISL:BSCA:1,2018-06-01T02:30:00Z,30.3288,-87.8293,2.1,13.0,11111222 
DISL,ioos:station:DISL:BSCA:1,2018-06-01T03:00:00Z,30.3288,-87.8293,2.1,13.0,11111222 
DISL,ioos:station:DISL:BSCA:1,2018-06-01T03:30:00Z,30.3288,-87.8293,2.1,13.0,11111222 
DISL,ioos:station:DISL:BSCA:1,2018-06-01T04:00:00Z,30.3288,-87.8293,2.049,12.97,1111122 
DISL,ioos:station:DISL:BSCA:1,2018-06-01T04:30:00Z,30.3288,-87.8293,2.1,12.9,11111222 
DISL,ioos:station:DISL:BSCA:1,2018-06-01T05:00:00Z,30.3288,-87.8293,2.1,13.0,11111222 
DISL,ioos:station:DISL:BSCA:1,2018-06-01T05:30:00Z,30.3288,-87.8293,2.1,13.0,11111222 
DISL,ioos:station:DISL:BSCA:1,2018-06-01T06:00:00Z,30.3288,-87.8293,2.1,13.0,11111222 
DISL,ioos:station:DISL:BSCA:1,2018-06-01T06:30:00Z,30.3288,-87.8293,2.1,13.1,11111222 
DISL,ioos:station:DISL:BSCA:1,2018-06-01T07:00:00Z,30.3288,-87.8293,2.1,13.1,11111222 
DISL,ioos:station:DISL:BSCA:1,2018-06-01T07:30:00Z,30.3288,-87.8293,2.1,13.1,11111222 
DISL,ioos:station:DISL:BSCA:1,2018-06-01T08:00:00Z,30.3288,-87.8293,2.2,13.0,11111222 
DISL,ioos:station:DISL:BSCA:1,2018-06-01T08:30:00Z,30.3288,-87.8293,2.2,13.1,11111222 
DISL,ioos:station:DISL:BSCA:1,2018-06-01T09:00:00Z,30.3288,-87.8293,2.2,13.1,11111222 
DISL,ioos:station:DISL:BSCA:1,2018-06-01T09:30:00Z,30.3288,-87.8293,2.2,13.1,11111222 
DISL,ioos:station:DISL:BSCA:1,2018-06-01T10:00:00Z,30.3288,-87.8293,2.3,13.2,11111222 
DISL,ioos:station:DISL:BSCA:1,2018-06-01T10:30:00Z,30.3288,-87.8293,2.3,13.2,11111222 
DISL,ioos:station:DISL:BSCA:1,2018-06-01T11:00:00Z,30.3288,-87.8293,2.3,13.3,11111222 
DISL,ioos:station:DISL:BSCA:1,2018-06-01T11:30:00Z,30.3288,-87.8293,2.4,13.4,11111222 
DISL,ioos:station:DISL:BSCA:1,2018-06-01T12:00:00Z,30.3288,-87.8293,2.4,13.4,11111222 
DISL,ioos:station:DISL:BSCA:1,2018-06-01T12:30:00Z,30.3288,-87.8293,2.4,13.4,11111222 
DISL,ioos:station:DISL:BSCA:1,2018-06-01T13:00:00Z,30.3288,-87.8293,2.4,13.4,11111222 
DISL,ioos:station:DISL:BSCA:1,2018-06-01T13:30:00Z,30.3288,-87.8293,2.4,13.3,11111222 
DISL,ioos:station:DISL:BSCA:1,2018-06-01T14:00:00Z,30.3288,-87.8293,2.5,13.3,11111222 
DISL,ioos:station:DISL:BSCA:1,2018-06-01T14:30:00Z,30.3288,-87.8293,2.5,13.3,11111222 
DISL,ioos:station:DISL:BSCA:1,2018-06-01T15:00:00Z,30.3288,-87.8293,2.5,13.3,11111222 
DISL,ioos:station:DISL:BSCA:1,2018-06-01T15:30:00Z,30.3288,-87.8293,2.5,13.3,11111222 
DISL,ioos:station:DISL:BSCA:1,2018-06-01T16:00:00Z,30.3288,-87.8293,2.6,13.3,11111222 
DISL,ioos:station:DISL:BSCA:1,2018-06-01T16:30:00Z,30.3288,-87.8293,2.6,13.4,11111222 
DISL,ioos:station:DISL:BSCA:1,2018-06-01T17:00:00Z,30.3288,-87.8293,2.6,13.4,11111222 
DISL,ioos:station:DISL:BSCA:1,2018-06-01T17:30:00Z,30.3288,-87.8293,2.6,13.3,11111222 
DISL,ioos:station:DISL:BSCA:1,2018-06-01T18:00:00Z,30.3288,-87.8293,2.6,13.4,11111222 
DISL,ioos:station:DISL:BSCA:1,2018-06-01T18:30:00Z,30.3288,-87.8293,2.6,13.4,11111222 
DISL,ioos:station:DISL:BSCA:1,2018-06-01T19:00:00Z,30.3288,-87.8293,2.5,13.4,11111222 
DISL,ioos:station:DISL:BSCA:1,2018-06-01T19:30:00Z,30.3288,-87.8293,2.5,13.4,11111222 
DISL,ioos:station:DISL:BSCA:1,2018-06-01T20:00:00Z,30.3288,-87.8293,2.5,13.5,11111222 
DISL,ioos:station:DISL:BSCA:1,2018-06-01T20:30:00Z,30.3288,-87.8293,2.5,13.5,11111222 
DISL,ioos:station:DISL:BSCA:1,2018-06-01T21:00:00Z,30.3288,-87.8293,2.4,13.5,11111222 
DISL,ioos:station:DISL:BSCA:1,2018-06-01T21:30:00Z,30.3288,-87.8293,2.4,13.5,11111222 
DISL,ioos:station:DISL:BSCA:1,2018-06-01T22:00:00Z,30.3288,-87.8293,2.4,13.5,11111222 
DISL,ioos:station:DISL:BSCA:1,2018-06-01T22:30:00Z,30.3288,-87.8293,2.4,13.5,11111222 
DISL,ioos:station:DISL:BSCA:1,2018-06-01T23:00:00Z,30.3288,-87.8293,2.3,13.5,11111222 
DISL,ioos:station:DISL:BSCA:1,2018-06-01T23:30:00Z,30.3288,-87.8293,2.3,13.5,11111222 
DISL,ioos:station:DISL:BSCA:1,2018-06-02T00:00:00Z,30.3288,-87.8293,2.3,13.5,11111222 
DISL,ioos:station:DISL:BSCA:1,2018-06-02T00:30:00Z,30.3288,-87.8293,2.2,13.5,11111222 
DISL,ioos:station:DISL:BSCA:1,2018-06-02T01:00:00Z,30.3288,-87.8293,2.2,13.4,11111222 
DISL,ioos:station:DISL:BSCA:1,2018-06-02T01:30:00Z,30.3288,-87.8293,2.2,13.5,11111222 
DISL,ioos:station:DISL:BSCA:1,2018-06-02T02:00:00Z,30.3288,-87.8293,2.2,13.4,11111222 
DISL,ioos:station:DISL:BSCA:1,2018-06-02T02:30:00Z,30.3288,-87.8293,2.1,13.5,11111222 
DISL,ioos:station:DISL:BSCA:1,2018-06-02T03:00:00Z,30.3288,-87.8293,2.1,13.5,11111222 
DISL,ioos:station:DISL:BSCA:1,2018-06-02T03:30:00Z,30.3288,-87.8293,2.106,13.45,1111122 
DISL,ioos:station:DISL:BSCA:1,2018-06-02T04:00:00Z,30.3288,-87.8293,2.1,13.4,11111222 
DISL,ioos:station:DISL:BSCA:1,2018-06-02T04:30:00Z,30.3288,-87.8293,2.095,13.42,1111122 
DISL,ioos:station:DISL:BSCA:1,2018-06-02T05:00:00Z,30.3288,-87.8293,2.1,13.4,11111222 
DISL,ioos:station:DISL:BSCA:1,2018-06-02T05:30:00Z,30.3288,-87.8293,2.086,13.44,1111122 
DISL,ioos:station:DISL:BSCA:1,2018-06-02T06:00:00Z,30.3288,-87.8293,2.1,13.5,11111222 
DISL,ioos:station:DISL:BSCA:1,2018-06-02T06:30:00Z,30.3288,-87.8293,2.087,13.43,1111122 
DISL,ioos:station:DISL:BSCA:1,2018-06-02T07:00:00Z,30.3288,-87.8293,2.098,13.42,1111122 
DISL,ioos:station:DISL:BSCA:1,2018-06-02T07:30:00Z,30.3288,-87.8293,2.1,13.4,11111222 
DISL,ioos:station:DISL:BSCA:1,2018-06-02T08:00:00Z,30.3288,-87.8293,2.1,13.3,11111222 
DISL,ioos:station:DISL:BSCA:1,2018-06-02T08:30:00Z,30.3288,-87.8293,2.131,13.26,1111122 
DISL,ioos:station:DISL:BSCA:1,2018-06-02T09:00:00Z,30.3288,-87.8293,2.1,13.2,11111222 
DISL,ioos:station:DISL:BSCA:1,2018-06-02T09:30:00Z,30.3288,-87.8293,2.167,13.21,1111122 
DISL,ioos:station:DISL:BSCA:1,2018-06-02T10:00:00Z,30.3288,-87.8293,2.2,13.2,11111222 
DISL,ioos:station:DISL:BSCA:1,2018-06-02T10:30:00Z,30.3288,-87.8293,2.228,13.2,1111122 
DISL,ioos:station:DISL:BSCA:1,2018-06-02T11:00:00Z,30.3288,-87.8293,2.3,13.4,11111222 
DISL,ioos:station:DISL:BSCA:1,2018-06-02T11:30:00Z,30.3288,-87.8293,2.281,13.37,1111122 
DISL,ioos:station:DISL:BSCA:1,2018-06-02T12:00:00Z,30.3288,-87.8293,2.3,13.5,11111222 
DISL,ioos:station:DISL:BSCA:1,2018-06-02T12:30:00Z,30.3288,-87.8293,2.3,13.5,11111222 
DISL,ioos:station:DISL:BSCA:1,2018-06-02T13:00:00Z,30.3288,-87.8293,2.3,13.6,11111222 
DISL,ioos:station:DISL:BSCA:1,2018-06-02T13:30:00Z,30.3288,-87.8293,2.4,13.6,11111222 
DISL,ioos:station:DISL:BSCA:1,2018-06-02T14:00:00Z,30.3288,-87.8293,2.4,13.6,11111222 
DISL,ioos:station:DISL:BSCA:1,2018-06-02T14:30:00Z,30.3288,-87.8293,2.4,13.5,11111222 
DISL,ioos:station:DISL:BSCA:1,2018-06-02T15:00:00Z,30.3288,-87.8293,2.4,13.5,11111222 
DISL,ioos:station:DISL:BSCA:1,2018-06-02T15:30:00Z,30.3288,-87.8293,2.5,13.5,11111222 
DISL,ioos:station:DISL:BSCA:1,2018-06-02T16:00:00Z,30.3288,-87.8293,2.5,13.5,11111222 
DISL,ioos:station:DISL:BSCA:1,2018-06-02T16:30:00Z,30.3288,-87.8293,2.5,13.5,11111222 
DISL,ioos:station:DISL:BSCA:1,2018-06-02T17:00:00Z,30.3288,-87.8293,2.5,13.5,11111222 
DISL,ioos:station:DISL:BSCA:1,2018-06-02T17:30:00Z,30.3288,-87.8293,2.6,13.5,11111222 
DISL,ioos:station:DISL:BSCA:1,2018-06-02T18:00:00Z,30.3288,-87.8293,2.6,13.5,11111222 
DISL,ioos:station:DISL:BSCA:1,2018-06-02T18:30:00Z,30.3288,-87.8293,2.6,13.5,11111222 
DISL,ioos:station:DISL:BSCA:1,2018-06-02T19:00:00Z,30.3288,-87.8293,2.6,13.4,11111222 
DISL,ioos:station:DISL:BSCA:1,2018-06-02T19:30:00Z,30.3288,-87.8293,2.535,13.46,1111122 
DISL,ioos:station:DISL:BSCA:1,2018-06-02T20:00:00Z,30.3288,-87.8293,2.5,13.5,11111222 
DISL,ioos:station:DISL:BSCA:1,2018-06-02T20:30:00Z,30.3288,-87.8293,2.511,13.48,1111122 
DISL,ioos:station:DISL:BSCA:1,2018-06-02T21:00:00Z,30.3288,-87.8293,2.5,13.5,11111222 
DISL,ioos:station:DISL:BSCA:1,2018-06-02T21:30:00Z,30.3288,-87.8293,2.48,13.47,1111122 
DISL,ioos:station:DISL:BSCA:1,2018-06-02T22:00:00Z,30.3288,-87.8293,2.4,13.5,11111222 
DISL,ioos:station:DISL:BSCA:1,2018-06-02T22:30:00Z,30.3288,-87.8293,2.438,13.46,1111122 
DISL,ioos:station:DISL:BSCA:1,2018-06-02T23:00:00Z,30.3288,-87.8293,2.4,13.5,11111222 
DISL,ioos:station:DISL:BSCA:1,2018-06-02T23:30:00Z,30.3288,-87.8293,2.406,13.45,1111122 
DISL,ioos:station:DISL:BSCA:1,2018-06-03T00:00:00Z,30.3288,-87.8293,2.4,13.4,11111222 
DISL,ioos:station:DISL:BSCA:1,2018-06-03T00:30:00Z,30.3288,-87.8293,2.347,13.44,1111122 
DISL,ioos:station:DISL:BSCA:1,2018-06-03T01:00:00Z,30.3288,-87.8293,2.3,13.5,11111222 
DISL,ioos:station:DISL:BSCA:1,2018-06-03T01:30:00Z,30.3288,-87.8293,2.322,13.44,1111122 
DISL,ioos:station:DISL:BSCA:1,2018-06-03T02:00:00Z,30.3288,-87.8293,2.3,13.5,11111222 
DISL,ioos:station:DISL:BSCA:1,2018-06-03T02:30:00Z,30.3288,-87.8293,2.277,13.45,1111122 
DISL,ioos:station:DISL:BSCA:1,2018-06-03T03:00:00Z,30.3288,-87.8293,2.2,13.4,11111222 
DISL,ioos:station:DISL:BSCA:1,2018-06-03T03:30:00Z,30.3288,-87.8293,2.206,13.41,1111122 
DISL,ioos:station:DISL:BSCA:1,2018-06-03T04:00:00Z,30.3288,-87.8293,2.2,13.4,11111222 
DISL,ioos:station:DISL:BSCA:1,2018-06-03T04:30:00Z,30.3288,-87.8293,2.192,13.38,1111122 
DISL,ioos:station:DISL:BSCA:1,2018-06-03T05:00:00Z,30.3288,-87.8293,2.2,13.4,11111222 
DISL,ioos:station:DISL:BSCA:1,2018-06-03T05:30:00Z,30.3288,-87.8293,2.182,13.36,1111122 
DISL,ioos:station:DISL:BSCA:1,2018-06-03T06:00:00Z,30.3288,-87.8293,2.1,13.4,11111222 
DISL,ioos:station:DISL:BSCA:1,2018-06-03T06:30:00Z,30.3288,-87.8293,2.1,13.4,11111222 
DISL,ioos:station:DISL:BSCA:1,2018-06-03T07:00:00Z,30.3288,-87.8293,2.1,13.4,11111222 
DISL,ioos:station:DISL:BSCA:1,2018-06-03T07:30:00Z,30.3288,-87.8293,2.1,13.4,11111222 
DISL,ioos:station:DISL:BSCA:1,2018-06-03T08:00:00Z,30.3288,-87.8293,2.1,13.4,11111222 
DISL,ioos:station:DISL:BSCA:1,2018-06-03T08:30:00Z,30.3288,-87.8293,2.1,13.4,11111222 
DISL,ioos:station:DISL:BSCA:1,2018-06-03T09:00:00Z,30.3288,-87.8293,2.1,13.4,11111222 
DISL,ioos:station:DISL:BSCA:1,2018-06-03T09:30:00Z,30.3288,-87.8293,2.1,13.4,11111222 
DISL,ioos:station:DISL:BSCA:1,2018-06-03T10:00:00Z,30.3288,-87.8293,2.1,13.4,11111222 
DISL,ioos:station:DISL:BSCA:1,2018-06-03T10:30:00Z,30.3288,-87.8293,2.1,13.4,11111222 
DISL,ioos:station:DISL:BSCA:1,2018-06-03T11:00:00Z,30.3288,-87.8293,2.2,13.4,11111222 
DISL,ioos:station:DISL:BSCA:1,2018-06-03T11:30:00Z,30.3288,-87.8293,2.2,13.4,11111222 
DISL,ioos:station:DISL:BSCA:1,2018-06-03T12:00:00Z,30.3288,-87.8293,2.2,13.4,11111222 
DISL,ioos:station:DISL:BSCA:1,2018-06-03T12:30:00Z,30.3288,-87.8293,2.2,13.4,11111222 
DISL,ioos:station:DISL:BSCA:1,2018-06-03T13:00:00Z,30.3288,-87.8293,2.3,13.4,11111222 
DISL,ioos:station:DISL:BSCA:1,2018-06-03T13:30:00Z,30.3288,-87.8293,2.3,13.4,11111222 
DISL,ioos:station:DISL:BSCA:1,2018-06-03T14:00:00Z,30.3288,-87.8293,2.3,13.4,11111222 
DISL,ioos:station:DISL:BSCA:1,2018-06-03T14:30:00Z,30.3288,-87.8293,2.3,13.4,11111222 
DISL,ioos:station:DISL:BSCA:1,2018-06-03T15:00:00Z,30.3288,-87.8293,2.3,13.4,11111222 
DISL,ioos:station:DISL:BSCA:1,2018-06-03T15:30:00Z,30.3288,-87.8293,2.3,13.4,11111222 
DISL,ioos:station:DISL:BSCA:1,2018-06-03T16:00:00Z,30.3288,-87.8293,2.4,13.5,11111222 
DISL,ioos:station:DISL:BSCA:1,2018-06-03T16:30:00Z,30.3288,-87.8293,2.4,13.3,11111222 
DISL,ioos:station:DISL:BSCA:1,2018-06-03T17:00:00Z,30.3288,-87.8293,2.4,13.3,11111222 
DISL,ioos:station:DISL:BSCA:1,2018-06-03T17:30:00Z,30.3288,-87.8293,2.4,13.0,11111222 
DISL,ioos:station:DISL:BSCA:1,2018-06-03T18:00:00Z,30.3288,-87.8293,2.5,12.7,11111222 
DISL,ioos:station:DISL:BSCA:1,2018-06-03T18:30:00Z,30.3288,-87.8293,2.5,12.6,11111222 
DISL,ioos:station:DISL:BSCA:1,2018-06-03T19:00:00Z,30.3288,-87.8293,2.5,12.7,11111222 
DISL,ioos:station:DISL:BSCA:1,2018-06-03T19:30:00Z,30.3288,-87.8293,2.5,12.9,11111222 
DISL,ioos:station:DISL:BSCA:1,2018-06-03T20:00:00Z,30.3288,-87.8293,2.5,13.1,11111222 
DISL,ioos:station:DISL:BSCA:1,2018-06-03T20:30:00Z,30.3288,-87.8293,2.5,13.1,11111222 
DISL,ioos:station:DISL:BSCA:1,2018-06-03T21:00:00Z,30.3288,-87.8293,2.4,13.1,11111222 
DISL,ioos:station:DISL:BSCA:1,2018-06-03T21:30:00Z,30.3288,-87.8293,2.4,12.5,11111222 
DISL,ioos:station:DISL:BSCA:1,2018-06-03T22:00:00Z,30.3288,-87.8293,2.4,12.4,11111222 
DISL,ioos:station:DISL:BSCA:1,2018-06-03T22:30:00Z,30.3288,-87.8293,2.4,12.4,11111222 
DISL,ioos:station:DISL:BSCA:1,2018-06-03T23:00:00Z,30.3288,-87.8293,2.4,12.4,11111222 
DISL,ioos:station:DISL:BSCA:1,2018-06-03T23:30:00Z,30.3288,-87.8293,2.3,12.4,11111222 
DISL,ioos:station:DISL:BSCA:1,2018-06-04T00:00:00Z,30.3288,-87.8293,2.3,12.4,11111222 
DISL,ioos:station:DISL:BSCA:1,2018-06-04T00:30:00Z,30.3288,-87.8293,2.3,12.4,11111222 
DISL,ioos:station:DISL:BSCA:1,2018-06-04T01:00:00Z,30.3288,-87.8293,2.3,12.4,11111222 
DISL,ioos:station:DISL:BSCA:1,2018-06-04T01:30:00Z,30.3288,-87.8293,2.2,12.4,11111222 
DISL,ioos:station:DISL:BSCA:1,2018-06-04T02:00:00Z,30.3288,-87.8293,2.2,12.5,11111222 
DISL,ioos:station:DISL:BSCA:1,2018-06-04T02:30:00Z,30.3288,-87.8293,2.2,12.5,11111222 
DISL,ioos:station:DISL:BSCA:1,2018-06-04T03:00:00Z,30.3288,-87.8293,2.117,12.4,1111122 
DISL,ioos:station:DISL:BSCA:1,2018-06-04T03:30:00Z,30.3288,-87.8293,2.2,12.5,11111222 
DISL,ioos:station:DISL:BSCA:1,2018-06-04T04:00:00Z,30.3288,-87.8293,2.274,12.44,1111122 
DISL,ioos:station:DISL:BSCA:1,2018-06-04T04:30:00Z,30.3288,-87.8293,2.047,12.39,1111122 
DISL,ioos:station:DISL:BSCA:1,2018-06-04T05:00:00Z,30.3288,-87.8293,2.0,12.4,11111222 
DISL,ioos:station:DISL:BSCA:1,2018-06-04T05:30:00Z,30.3288,-87.8293,1.913,12.39,1111122 
DISL,ioos:station:DISL:BSCA:1,2018-06-04T06:00:00Z,30.3288,-87.8293,2.0,12.4,11111222 
DISL,ioos:station:DISL:BSCA:1,2018-06-04T06:30:00Z,30.3288,-87.8293,2.0,12.4,11111222 
DISL,ioos:station:DISL:BSCA:1,2018-06-04T07:00:00Z,30.3288,-87.8293,2.0,12.4,11111222 
DISL,ioos:station:DISL:BSCA:1,2018-06-04T07:30:00Z,30.3288,-87.8293,2.0,12.4,11111222 
DISL,ioos:station:DISL:BSCA:1,2018-06-04T08:00:00Z,30.3288,-87.8293,2.0,12.4,11111222 
DISL,ioos:station:DISL:BSCA:1,2018-06-04T08:30:00Z,30.3288,-87.8293,2.0,12.4,11111222 
DISL,ioos:station:DISL:BSCA:1,2018-06-04T09:00:00Z,30.3288,-87.8293,2.1,12.4,11111222 
DISL,ioos:station:DISL:BSCA:1,2018-06-04T09:30:00Z,30.3288,-87.8293,2.1,12.4,11111222 
DISL,ioos:station:DISL:BSCA:1,2018-06-04T10:00:00Z,30.3288,-87.8293,2.1,12.4,11111222 
DISL,ioos:station:DISL:BSCA:1,2018-06-04T10:30:00Z,30.3288,-87.8293,2.1,12.4,11111222 
DISL,ioos:station:DISL:BSCA:1,2018-06-04T11:00:00Z,30.3288,-87.8293,2.2,12.4,11111222 
DISL,ioos:station:DISL:BSCA:1,2018-06-04T11:30:00Z,30.3288,-87.8293,2.2,12.4,11111222 
DISL,ioos:station:DISL:BSCA:1,2018-06-04T12:00:00Z,30.3288,-87.8293,2.2,12.4,11111222 
DISL,ioos:station:DISL:BSCA:1,2018-06-04T12:30:00Z,30.3288,-87.8293,2.2,12.5,11111222 
DISL,ioos:station:DISL:BSCA:1,2018-06-04T13:00:00Z,30.3288,-87.8293,2.2,12.5,11111222 
DISL,ioos:station:DISL:BSCA:1,2018-06-04T13:30:00Z,30.3288,-87.8293,2.2,12.5,11111222 
DISL,ioos:station:DISL:BSCA:1,2018-06-04T14:00:00Z,30.3288,-87.8293,2.3,12.5,11111222 
DISL,ioos:station:DISL:BSCA:1,2018-06-04T14:30:00Z,30.3288,-87.8293,2.3,12.5,11111222 
DISL,ioos:station:DISL:BSCA:1,2018-06-04T15:00:00Z,30.3288,-87.8293,2.3,12.5,11111222 
DISL,ioos:station:DISL:BSCA:1,2018-06-04T15:30:00Z,30.3288,-87.8293,2.3,12.5,11111222 
DISL,ioos:station:DISL:BSCA:1,2018-06-04T16:00:00Z,30.3288,-87.8293,2.3,12.5,11111222 
DISL,ioos:station:DISL:BSCA:1,2018-06-04T16:30:00Z,30.3288,-87.8293,2.3,12.5,11111222 
DISL,ioos:station:DISL:BSCA:1,2018-06-04T17:00:00Z,30.3288,-87.8293,2.4,12.5,11111222 
DISL,ioos:station:DISL:BSCA:1,2018-06-04T17:30:00Z,30.3288,-87.8293,2.4,12.6,11111222 
DISL,ioos:station:DISL:BSCA:1,2018-06-04T18:00:00Z,30.3288,-87.8293,2.4,12.6,11111222 
DISL,ioos:station:DISL:BSCA:1,2018-06-04T18:30:00Z,30.3288,-87.8293,2.4,12.6,11111222 
DISL,ioos:station:DISL:BSCA:1,2018-06-04T19:00:00Z,30.3288,-87.8293,2.4,12.6,11111222 
DISL,ioos:station:DISL:BSCA:1,2018-06-04T19:30:00Z,30.3288,-87.8293,2.4,12.6,11111222 
DISL,ioos:station:DISL:BSCA:1,2018-06-04T20:00:00Z,30.3288,-87.8293,2.4,12.6,11111222 
DISL,ioos:station:DISL:BSCA:1,2018-06-04T20:30:00Z,30.3288,-87.8293,2.37,12.61,1111122 
DISL,ioos:station:DISL:BSCA:1,2018-06-04T21:00:00Z,30.3288,-87.8293,2.4,12.6,11111222 
DISL,ioos:station:DISL:BSCA:1,2018-06-04T21:30:00Z,30.3288,-87.8293,2.3,12.6,11111222 
DISL,ioos:station:DISL:BSCA:1,2018-06-04T22:00:00Z,30.3288,-87.8293,2.3,12.5,11111222 
DISL,ioos:station:DISL:BSCA:1,2018-06-04T22:30:00Z,30.3288,-87.8293,2.3,12.5,11111222 
DISL,ioos:station:DISL:BSCA:1,2018-06-04T23:00:00Z,30.3288,-87.8293,2.3,12.5,11111222 
DISL,ioos:station:DISL:BSCA:1,2018-06-04T23:30:00Z,30.3288,-87.8293,2.2,12.5,11111222 
DISL,ioos:station:DISL:BSCA:1,2018-06-05T00:00:00Z,30.3288,-87.8293,2.2,12.5,11111222 
DISL,ioos:station:DISL:BSCA:1,2018-06-05T00:30:00Z,30.3288,-87.8293,2.2,12.5,11111222 
DISL,ioos:station:DISL:BSCA:1,2018-06-05T01:00:00Z,30.3288,-87.8293,2.2,12.4,11111222 
DISL,ioos:station:DISL:BSCA:1,2018-06-05T01:30:00Z,30.3288,-87.8293,2.2,12.4,11111222 
DISL,ioos:station:DISL:BSCA:1,2018-06-05T02:00:00Z,30.3288,-87.8293,2.1,12.3,11111222 
DISL,ioos:station:DISL:BSCA:1,2018-06-05T02:30:00Z,30.3288,-87.8293,2.1,12.1,11111222 
DISL,ioos:station:DISL:BSCA:1,2018-06-05T03:00:00Z,30.3288,-87.8293,2.1,12.1,11111222 
DISL,ioos:station:DISL:BSCA:1,2018-06-05T03:30:00Z,30.3288,-87.8293,2.1,12.1,11111222 
DISL,ioos:station:DISL:BSCA:1,2018-06-05T04:00:00Z,30.3288,-87.8293,2.1,12.1,11111222 
DISL,ioos:station:DISL:BSCA:1,2018-06-05T04:30:00Z,30.3288,-87.8293,2.1,12.0,11111222 
DISL,ioos:station:DISL:BSCA:1,2018-06-05T05:00:00Z,30.3288,-87.8293,2.0,12.0,11111222 
DISL,ioos:station:DISL:BSCA:1,2018-06-05T05:30:00Z,30.3288,-87.8293,2.0,12.0,11111222 
DISL,ioos:station:DISL:BSCA:1,2018-06-05T06:00:00Z,30.3288,-87.8293,2.0,12.0,11111222 
DISL,ioos:station:DISL:BSCA:1,2018-06-05T06:30:00Z,30.3288,-87.8293,2.0,12.0,11111222 
DISL,ioos:station:DISL:BSCA:1,2018-06-05T07:00:00Z,30.3288,-87.8293,2.0,12.0,11111222 
DISL,ioos:station:DISL:BSCA:1,2018-06-05T07:30:00Z,30.3288,-87.8293,2.0,12.0,11111222 
DISL,ioos:station:DISL:BSCA:1,2018-06-05T08:00:00Z,30.3288,-87.8293,2.0,12.0,11111222 
DISL,ioos:station:DISL:BSCA:1,2018-06-05T08:30:00Z,30.3288,-87.8293,2.0,12.0,11111222 
DISL,ioos:station:DISL:BSCA:1,2018-06-05T09:00:00Z,30.3288,-87.8293,2.0,12.0,11111222 
DISL,ioos:station:DISL:BSCA:1,2018-06-05T09:30:00Z,30.3288,-87.8293,2.0,12.0,11111222 
DISL,ioos:station:DISL:BSCA:1,2018-06-05T10:00:00Z,30.3288,-87.8293,2.1,12.0,11111222 
DISL,ioos:station:DISL:BSCA:1,2018-06-05T10:30:00Z,30.3288,-87.8293,2.1,12.0,11111222 
DISL,ioos:station:DISL:BSCA:1,2018-06-05T11:00:00Z,30.3288,-87.8293,2.1,12.0,11111222 
DISL,ioos:station:DISL:BSCA:1,2018-06-05T11:30:00Z,30.3288,-87.8293,2.2,12.0,11111222 
DISL,ioos:station:DISL:BSCA:1,2018-06-05T12:00:00Z,30.3288,-87.8293,2.2,12.0,11111222 
DISL,ioos:station:DISL:BSCA:1,2018-06-05T12:30:00Z,30.3288,-87.8293,2.2,12.0,11111222 
DISL,ioos:station:DISL:BSCA:1,2018-06-05T13:00:00Z,30.3288,-87.8293,2.2,12.1,11111222 
DISL,ioos:station:DISL:BSCA:1,2018-06-05T13:30:00Z,30.3288,-87.8293,2.3,12.1,11111222 
DISL,ioos:station:DISL:BSCA:1,2018-06-05T14:00:00Z,30.3288,-87.8293,2.3,12.1,11111222 
DISL,ioos:station:DISL:BSCA:1,2018-06-05T14:30:00Z,30.3288,-87.8293,2.3,12.1,11111222 
DISL,ioos:station:DISL:BSCA:1,2018-06-05T15:00:00Z,30.3288,-87.8293,2.3,12.1,11111222 
DISL,ioos:station:DISL:BSCA:1,2018-06-05T15:30:00Z,30.3288,-87.8293,2.347,12.04,1111122 
DISL,ioos:station:DISL:BSCA:1,2018-06-05T16:00:00Z,30.3288,-87.8293,2.4,12.0,11111222 
DISL,ioos:station:DISL:BSCA:1,2018-06-05T16:30:00Z,30.3288,-87.8293,2.5,12.0,11111222 
DISL,ioos:station:DISL:BSCA:1,2018-06-05T17:00:00Z,30.3288,-87.8293,2.4,12.1,11111222 
DISL,ioos:station:DISL:BSCA:1,2018-06-05T17:30:00Z,30.3288,-87.8293,2.3,12.1,11111222 
DISL,ioos:station:DISL:BSCA:1,2018-06-05T18:00:00Z,30.3288,-87.8293,2.3,12.0,11111222 
DISL,ioos:station:DISL:BSCA:1,2018-06-05T18:30:00Z,30.3288,-87.8293,2.2,12.0,11111222 
DISL,ioos:station:DISL:BSCA:1,2018-06-05T19:00:00Z,30.3288,-87.8293,2.2,12.0,11111222 
DISL,ioos:station:DISL:BSCA:1,2018-06-05T19:30:00Z,30.3288,-87.8293,2.3,12.0,11111222 
DISL,ioos:station:DISL:BSCA:1,2018-06-05T20:00:00Z,30.3288,-87.8293,2.3,12.0,11111222 
DISL,ioos:station:DISL:BSCA:1,2018-06-05T20:30:00Z,30.3288,-87.8293,2.3,12.1,11111222 
DISL,ioos:station:DISL:BSCA:1,2018-06-05T21:00:00Z,30.3288,-87.8293,2.4,12.1,11111222 
DISL,ioos:station:DISL:BSCA:1,2018-06-05T21:30:00Z,30.3288,-87.8293,2.4,12.1,11111222 
DISL,ioos:station:DISL:BSCA:1,2018-06-05T22:00:00Z,30.3288,-87.8293,2.4,12.1,11111222 
DISL,ioos:station:DISL:BSCA:1,2018-06-05T22:30:00Z,30.3288,-87.8293,2.4,12.1,11111222 
DISL,ioos:station:DISL:BSCA:1,2018-06-05T23:00:00Z,30.3288,-87.8293,2.5,12.1,11111222 
DISL,ioos:station:DISL:BSCA:1,2018-06-05T23:30:00Z,30.3288,-87.8293,2.4,12.1,11111222 
DISL,ioos:station:DISL:BSCA:1,2018-06-06T00:00:00Z,30.3288,-87.8293,2.4,12.1,11111222 
DISL,ioos:station:DISL:BSCA:1,2018-06-06T00:30:00Z,30.3288,-87.8293,2.4,12.1,11111222 
DISL,ioos:station:DISL:BSCA:1,2018-06-06T01:00:00Z,30.3288,-87.8293,2.4,12.0,11111222 
DISL,ioos:station:DISL:BSCA:1,2018-06-06T01:30:00Z,30.3288,-87.8293,2.3,12.0,11111222 
DISL,ioos:station:DISL:BSCA:1,2018-06-06T02:00:00Z,30.3288,-87.8293,2.3,12.0,11111222 
DISL,ioos:station:DISL:BSCA:1,2018-06-06T02:30:00Z,30.3288,-87.8293,2.2,12.0,11111222 
DISL,ioos:station:DISL:BSCA:1,2018-06-06T03:00:00Z,30.3288,-87.8293,2.2,12.0,11111222 
DISL,ioos:station:DISL:BSCA:1,2018-06-06T03:30:00Z,30.3288,-87.8293,2.2,12.0,11111222 
DISL,ioos:station:DISL:BSCA:1,2018-06-06T04:00:00Z,30.3288,-87.8293,2.2,12.0,11111222 
DISL,ioos:station:DISL:BSCA:1,2018-06-06T04:30:00Z,30.3288,-87.8293,2.2,12.0,11111222 
DISL,ioos:station:DISL:BSCA:1,2018-06-06T05:00:00Z,30.3288,-87.8293,2.2,12.0,11111222 
DISL,ioos:station:DISL:BSCA:1,2018-06-06T05:30:00Z,30.3288,-87.8293,2.1,12.0,11111222 
DISL,ioos:station:DISL:BSCA:1,2018-06-06T06:00:00Z,30.3288,-87.8293,2.1,12.0,11111222 
DISL,ioos:station:DISL:BSCA:1,2018-06-06T06:30:00Z,30.3288,-87.8293,2.1,12.0,11111222 
DISL,ioos:station:DISL:BSCA:1,2018-06-06T07:00:00Z,30.3288,-87.8293,2.1,12.0,11111222 
DISL,ioos:station:DISL:BSCA:1,2018-06-06T07:30:00Z,30.3288,-87.8293,2.1,12.0,11111222 
DISL,ioos:station:DISL:BSCA:1,2018-06-06T08:00:00Z,30.3288,-87.8293,2.0,11.9,11111222 
DISL,ioos:station:DISL:BSCA:1,2018-06-06T08:30:00Z,30.3288,-87.8293,2.0,11.9,11111222 
DISL,ioos:station:DISL:BSCA:1,2018-06-06T09:00:00Z,30.3288,-87.8293,2.0,11.9,11111222 
DISL,ioos:station:DISL:BSCA:1,2018-06-06T09:30:00Z,30.3288,-87.8293,2.0,11.9,11111222 
DISL,ioos:station:DISL:BSCA:1,2018-06-06T10:00:00Z,30.3288,-87.8293,2.1,11.9,11111222 
DISL,ioos:station:DISL:BSCA:1,2018-06-06T10:30:00Z,30.3288,-87.8293,2.1,11.9,11111222 
DISL,ioos:station:DISL:BSCA:1,2018-06-06T11:00:00Z,30.3288,-87.8293,2.1,12.0,11111222 
DISL,ioos:station:DISL:BSCA:1,2018-06-06T11:30:00Z,30.3288,-87.8293,2.1,12.0,11111222 
DISL,ioos:station:DISL:BSCA:1,2018-06-06T12:00:00Z,30.3288,-87.8293,2.2,12.0,11111222 
DISL,ioos:station:DISL:BSCA:1,2018-06-06T12:30:00Z,30.3288,-87.8293,2.2,12.0,11111222 
DISL,ioos:station:DISL:BSCA:1,2018-06-06T13:00:00Z,30.3288,-87.8293,2.2,12.1,11111222 
DISL,ioos:station:DISL:BSCA:1,2018-06-06T13:30:00Z,30.3288,-87.8293,2.3,12.1,11111222 
DISL,ioos:station:DISL:BSCA:1,2018-06-06T14:00:00Z,30.3288,-87.8293,2.3,12.1,11111222 
DISL,ioos:station:DISL:BSCA:1,2018-06-06T14:30:00Z,30.3288,-87.8293,2.3,12.1,11111222 
DISL,ioos:station:DISL:BSCA:1,2018-06-06T15:00:00Z,30.3288,-87.8293,2.3,12.1,11111222 
DISL,ioos:station:DISL:BSCA:1,2018-06-06T15:30:00Z,30.3288,-87.8293,2.4,12.1,11111222 
DISL,ioos:station:DISL:BSCA:1,2018-06-06T16:00:00Z,30.3288,-87.8293,2.3,12.1,11111222 
DISL,ioos:station:DISL:BSCA:1,2018-06-06T16:30:00Z,30.3288,-87.8293,2.3,12.1,11111222 